Location: ??????
(31.2056°N, 45.3906°E)
Time: 20:01:46
(UTC+00:00)

ATLAS 5 CENTAUR R/B - Pass Details

Date: 09 April 2020
Orbit: 543 x 1116 km, 63.4° (Epoch: 01 May)

Event Time Altitude Azimuth Distance (km) Brightness Sun altitude
Rises 16:31:01 0° 231° (SW) 2,690 5.3 -14.9°
Reaches altitude 10° 16:33:20 10° 241° (WSW) 1,813 4.5 -15.3°
Maximum altitude 16:36:56 31° 306° (NW) 999 3.3 -16.1°
Drops below altitude 10° 16:40:49 10° 9° (N) 1,956 4.3 -16.8°
Sets 16:43:25 0° 20° (NNE) 2,942 5.1 -17.4°
